SCP
0 0 0 0 0 0 0 0 0 0 0 0 0 0 0 0 0 0 0 0 0 0 0 0 0 0 0 0 0 0 0 0 0 0 0 0 0 0 0 0 0 0 0 0 0
0 0 0 0 0 0 0 0 0 0 0 0 0 0 0 0 -0 0 0 0 0 0 0 0 0 0 0 0 0 0 0 0 0 0 0 0 0 0 0 0 0 0 0 0 0
0 0 0 0 0 0 0 0 0 0 0 0 0 0 0 0 -0 -0 -0 -0 0 0 0 0 0 0 0 0 0 0 0 0 0 0 0 0 0 0 0 0 0 0 0 0 0
0 0 0 0 0 0 0 0 0 0 0 0 0 0 0 0 0 0 0 0 0 0 0 0 0 0 0 0 0 0 0 0 0 0 0 0 0 0 0 0 0 0 0 0 0
0 0 0 0 0 0 0 0 0 0 0 0 0 0 0 0 0 0 0 0 0 0 0 0 0 0 0 0 0 0 0 0 0 0 0 0 0 0 0 0 0 0 0 0 0
0 0 0 0 0 0 0 0 0 0 0 0 0 0 0 0 0 0 0 0 0 0 0 0 0 0 0 0 0 0 0 0 0 0 0 0 0 0 -0 -0 0 0 0 0 0
0 0 0 0 0 0 0 0 0 0 0 0 0 0 0 -0 0 0 0 0 0 0 0 0 0 0 0 0 0 0 0 0 0 0 0 0 0 0 0 0 0 0 0 0 0
0 0 0 0 0 0 0 0 0 0 0 0 0 0 0 0 0 0 0 0 0 0 0 0 0 0 0 0 0 0 0 0 0 0 0 0 0 -0 0 0 0 0 0 0 0
0 0 0 0 0 0 0 0 0 0 0 0 0 0 0 0 0 0 0 0 0 0 0 0 0 0 0 0 0 0 0 0 0 0 0 0 0 -0 0 0 0 0 0 0 0
0 0 0 0 0 0 0 0 0 -0 -0 -0 0 0 0 0 0 0 0 0 0 0 0 0 0 0 0 0 0 0 0 0 0 0 0 0 0 -0 0 0 0 0 0 0 0
0 0 0 0 0 0 0 0 0 0 0 0 0 0 0 0 0 0 0 0 0 0 0 0 0 0 0 0 0 0 0 0 0 0 0 0 0 -0 0 0 0 0 0 0 0
0 0 0 0 0 0 0 0 0 0 0 0 0 0 0 0 0 0 0 0 0 0 0 0 0 0 0 0 0 0 0 0 0 0 0 0 -0 -0 0 0 0 0 0 0 0
0 0 0 0 0 0 0 0 0 0 -0 -0 0 0 0 0 0 0 0 0 0 0 0 0 0 0 0 0 0 0 0 0 0 0 0 -0 -0 -0 0 0 0 0 0 0 0
0 0 0 0 0 0 0 0 0 0 -0 -0 0 0 0 0 0 0 0 0 0 0 0 0 0 0 0 0 0 0 0 0 0 0 0 0 -0 -0 -0 0 0 0 0 -0 0
0 0 0 0 0 0 0 0 0 0 0 0 0 0 0 0 0 0 0 0 0 0 0 0 0 0 0 0 0 0 0 0 0 0 -0 -0 -0 -0 -0 0 0 0 0 -0 0
0 0 0 0 0 0 0 0 0 0 0 0 0 0 0 0 0 0 0 0 0 0 0 0 0 0 0 0 0 0 0 0 0 -0 -0 -0 -0 -0 0 0 0 0 0 0 0
0 0 0 0 0 0 0 0 0 0 0 0 0 0 0 0 0 0 0 0 0 0 0 0 0 0 0 0 0 0 0 0 0 0 -0 0 0 -0 0 -0 0 0 0 0 0
0 0 0 0 0 0 0 0 0 0 0 0 0 0 0 -0 0 0 0 0 0 0 0 0 0 0 0 0 0 0 0 0 -0 -0 -0 0 -0 -0 -0 0 0 0 0 0 0
0 0 0 0 0 0 0 0 0 0 0 0 -0 -0 -0 -0 0 0 0 0 0 0 0 0 0 0 0 0 0 0 0 0 0 0 0 0 0 0 -0 0 0 0 0 0 -0
0 0 0 -0 0 0 0 -0 0 0 0 0 0 0 -0 -0 0 0 0 0 0 0 0 0 0 0 0 0 0 0 0 0 0 0 0 0 0 0 0 0 0 0 0 -0 -0
0 0 0 -0 0 0 0 -0 0 0 0 0 0 0 0 -0 -0 0 0 0 0 0 0 0 0 0 0 0 0 0 0 0 0 0 0 0 0 0 0 0 0 -0 -0 -0 -0
0 0 0 -0 -0 0 -0 -0 0 0 0 -0 0 -0 -0 0 -0 -0 0 0 0 0 0 0 0 0 0 0 0 0 0 0 0 0 0 0 0 0 0 0 0 0 0 -0 -0
0 0 0 0 -0 -0 -0 0 0 0 0 0 -0 0 0 -0 -0 -0 -0 -0 0 0 0 0 0 0 0 0 0 0 0 0 0 0 0 0 0 0 0 0 0 -0 0 -0 -0
0 0 0 0 -0 -0 -0 -0 -0 -0 -0 -0 -0 -0 -0 -0 -0 -0 -0 -0 -0 0 0 0 0 0 0 0 0 0 0 0 0 0 0 0 0 0 0 0 0 -0 0 -0 -0
0 0 0 0 0 -0 0 0 -0 -0 -0 -0 -0 -0 0 -0 0 -0 -0 -0 -0 -0 0 0 0 0 0 0 0 0 0 0 0 -0 0 0 0 0 0 0 0 0 0 -0 -0
0 0 0 0 0 0 0 0 0 -0 -0 0 -0 0 0 -0 -0 0 0 -0 -0 -0 0 0 0 0 -0 -0 -0 0 0 0 0 0 -0 -0 -0 -0 0 0 0 0 0 -0 -0
0 0 0 0 0 0 0 0 0 0 -0 0 -0 0 0 0 -0 -0 -0 -0 -0 -0 0 0 0 0 0 0 0 -0 0 0 0 0 0 0 0 -0 0 0 0 0 0 -0 -0
Wind_Speed_500mb
38 43 49 54 59 62 61 59 58 54 54 55 55 53 53 56 59 53 62 52 34 29 30 31 22 35 31 24 22 16 4 12 15 13 16 9 4 7 5 16 17 33 44 53 63
37 39 42 47 50 55 59 60 62 60 57 55 55 55 57 59 62 75 67 62 41 42 45 47 44 40 29 25 20 16 11 22 22 16 13 8 3 33 11 33 31 52 56 52 60
35 36 35 34 39 45 50 54 57 59 60 59 56 56 56 51 56 68 67 55 44 55 55 51 30 44 29 23 31 17 27 39 28 51 15 16 30 22 19 26 50 42 73 76 62
36 38 39 38 39 39 40 44 49 53 56 58 58 57 57 39 19 3 23 27 43 58 61 56 42 33 14 22 42 9 36 58 56 46 28 23 31 44 47 60 69 70 78 81 69
39 39 40 41 43 43 41 39 40 44 47 50 48 46 49 33 50 11 25 14 8 25 52 64 61 44 19 18 32 17 25 39 51 53 55 46 38 41 59 92 78 73 78 80 71
41 42 42 42 43 43 43 45 43 42 43 44 40 35 35 39 59 59 74 48 30 15 13 51 39 56 22 21 18 18 41 49 40 59 65 45 39 39 73 75 70 72 76 81 77
45 46 47 47 47 48 48 46 46 46 47 43 37 33 51 87 48 42 36 74 69 62 56 38 47 38 23 4 24 21 12 16 27 40 20 42 24 37 92 64 61 72 80 82 77
43 44 47 49 49 50 49 51 52 53 54 48 37 25 39 45 54 64 69 58 51 55 57 47 36 49 11 7 1 6 6 6 9 11 15 24 23 41 66 57 70 67 65 69 73
48 50 50 49 49 52 52 52 53 54 47 38 21 20 36 29 53 60 66 80 72 54 36 21 47 33 9 15 13 4 22 20 13 17 9 15 20 34 42 25 47 63 72 69 74
44 47 50 53 54 51 52 53 42 28 20 5 11 11 30 23 23 30 26 43 61 36 50 29 24 11 11 16 33 13 10 12 19 4 8 19 26 38 69 38 50 56 70 81 80
45 46 46 46 51 55 50 49 16 7 15 15 18 39 55 29 26 12 22 23 43 35 21 26 15 45 45 33 11 10 25 32 9 6 13 19 16 30 48 26 37 57 68 80 83
48 49 48 46 46 49 41 11 9 16 24 49 62 69 79 77 38 48 25 22 24 31 24 13 58 43 26 34 34 25 27 32 16 7 12 20 26 32 31 35 40 58 73 73 61
48 47 46 49 48 38 19 12 14 36 12 33 56 37 48 53 49 81 35 25 13 26 48 50 52 29 34 26 32 33 40 32 20 9 11 13 23 27 24 27 38 51 45 44 46
47 45 46 49 32 25 29 1 24 24 8 15 10 15 13 19 21 84 54 26 14 37 35 36 42 40 24 39 33 39 32 30 22 7 13 10 12 20 18 33 15 42 45 45 37
44 45 46 38 42 24 21 18 14 5 9 5 5 0 28 19 25 30 92 49 20 19 20 25 35 42 46 48 41 26 20 18 17 14 4 7 8 11 9 19 27 22 50 48 38
48 51 47 41 33 19 10 15 2 4 15 8 13 27 20 10 32 22 36 51 26 12 18 22 25 45 20 24 33 14 9 8 7 2 16 25 14 9 12 20 13 11 18 27 21
54 49 41 35 31 23 19 7 4 9 12 10 17 30 29 30 18 11 17 41 21 23 26 11 27 3 14 11 14 15 15 2 6 1 10 12 15 26 19 17 18 23 31 11 23
54 47 32 16 15 12 1 3 13 8 7 23 24 27 19 31 24 45 8 16 35 5 18 16 10 34 12 19 18 31 20 13 11 7 10 14 15 15 25 29 42 45 32 22 35
59 38 18 26 9 13 4 3 6 7 7 20 25 13 9 22 10 21 13 13 3 32 9 13 12 8 29 14 39 16 21 19 4 3 1 7 15 15 11 15 7 1 17 34 40
58 23 31 22 5 12 3 7 7 10 14 10 9 9 13 24 14 19 17 26 23 19 7 7 5 11 27 11 38 22 22 14 12 13 8 10 10 10 6 14 5 8 16 34 42
29 10 23 23 12 3 1 8 9 20 16 7 7 8 17 24 8 5 12 24 42 44 20 14 3 3 20 27 25 10 13 6 14 10 10 2 12 14 17 15 16 17 35 48 51
23 5 16 16 6 3 3 6 15 16 20 14 9 16 19 16 10 4 10 12 45 34 20 6 5 6 26 14 41 34 20 14 15 19 7 8 11 9 19 11 12 18 33 36 43
22 11 10 13 5 4 8 9 9 10 13 6 10 8 13 11 10 15 3 5 22 31 25 16 8 4 4 6 6 42 40 23 11 7 32 8 10 5 9 8 19 23 35 38 43
14 8 9 7 5 6 11 13 8 18 18 9 9 11 8 9 13 12 13 5 9 22 33 26 7 9 16 4 10 10 32 36 18 6 8 20 6 10 8 15 11 21 37 43 46
16 5 6 8 8 15 13 7 9 12 11 17 7 3 10 5 13 5 14 10 5 13 12 11 7 7 28 23 17 1 19 41 33 41 21 7 14 12 15 18 13 34 40 46 49
14 9 11 13 21 13 8 6 8 12 8 9 6 19 14 8 9 15 18 11 2 2 3 6 8 13 9 13 27 21 22 21 47 39 36 6 22 16 10 10 18 42 50 52 57
15 19 13 12 9 5 4 8 19 24 22 19 17 23 23 23 11 29 35 34 14 4 3 4 6 12 9 14 9 22 43 23 9 24 31 23 44 8 9 16 23 45 57 62 64
Wind_Direction_500mb
310 301 297 295 295 297 294 294 291 287 284 284 280 278 277 278 274 268 258 260 264 260 254 232 216 222 216 211 198 187 130 239 239 187 245 173 329 278 295 284 294 288 290 297 298
324 315 306 300 295 291 294 295 293 291 289 286 284 280 278 279 280 272 263 259 249 253 252 241 222 206 198 217 198 184 191 223 216 208 247 256 224 300 309 304 285 294 302 304 308
343 341 337 323 307 300 296 295 293 292 290 286 282 281 280 284 291 280 273 266 244 242 241 241 229 205 194 204 200 204 225 231 264 245 267 290 296 304 280 285 285 291 301 305 301
337 334 334 332 332 327 319 307 300 296 290 287 286 282 276 278 242 297 228 198 216 219 224 219 202 183 196 205 214 218 233 238 248 260 274 265 288 284 287 273 282 291 293 295 290
334 330 328 326 326 325 325 324 318 308 299 292 287 286 284 258 236 234 201 177 40 206 212 202 189 186 178 216 217 230 240 247 254 268 269 275 260 267 280 280 285 289 291 292 289
327 326 325 324 323 323 322 318 314 310 307 302 296 287 277 253 260 251 243 239 247 272 250 201 207 203 205 221 185 201 237 253 268 264 263 270 276 276 272 274 281 287 290 294 293
328 326 324 323 321 318 317 316 311 311 309 303 298 284 264 250 249 262 257 246 245 248 252 253 213 200 217 289 247 243 233 263 244 254 253 266 270 255 268 281 282 282 287 288 289
325 323 321 321 320 318 317 310 308 311 304 291 281 281 260 272 270 255 246 249 240 242 245 247 241 231 229 217 38 192 178 241 241 206 250 181 267 269 272 271 274 280 287 288 289
323 323 322 320 319 318 317 310 314 309 303 288 261 246 273 275 261 270 252 240 239 242 233 213 220 220 206 227 283 255 254 250 292 231 239 177 277 267 280 279 276 280 286 287 289
327 324 324 324 322 321 320 319 319 315 328 43 216 263 265 264 310 289 295 241 226 226 217 215 211 191 183 173 216 203 236 235 235 260 227 258 258 277 277 270 267 281 286 287 291
332 328 326 322 322 325 329 335 357 315 328 276 246 254 283 290 322 218 274 213 200 197 177 180 198 218 207 208 206 206 229 242 248 202 243 244 256 265 281 267 269 278 280 290 293
334 332 328 326 323 321 323 356 51 321 297 292 279 257 269 274 282 274 237 151 183 196 156 168 227 219 196 204 208 211 237 248 264 198 228 271 273 273 278 273 264 273 279 279 285
334 333 330 325 326 321 342 6 333 334 270 286 263 251 246 249 231 255 236 196 173 184 190 200 225 199 195 194 205 214 221 236 238 307 262 311 291 279 280 278 270 272 277 290 275
331 330 331 324 325 325 324 224 325 323 299 272 220 251 235 240 247 233 224 210 191 191 195 228 223 194 191 207 194 222 215 236 253 255 255 132 284 290 300 296 278 285 296 287 285
336 329 323 318 305 306 313 306 303 160 318 246 180 306 321 187 306 233 218 229 202 169 166 213 178 199 204 204 193 224 178 211 225 231 208 240 278 266 268 279 281 271 286 279 273
332 328 322 315 296 314 317 326 241 110 245 319 27 340 329 231 259 279 175 211 222 184 246 213 200 196 176 189 197 169 143 80 31 140 258 255 204 245 231 233 261 266 275 297 248
333 329 321 303 285 303 312 301 123 202 338 26 339 336 329 355 1 342 232 196 186 188 207 168 232 197 159 174 164 131 98 258 335 242 225 192 187 244 252 235 233 256 275 293 195
338 335 330 331 283 268 267 76 226 286 308 351 340 319 347 14 338 339 266 223 241 243 167 173 202 199 177 184 171 184 161 155 199 214 249 161 204 245 224 232 246 255 260 198 189
342 347 23 5 326 147 151 190 246 328 24 337 342 335 350 4 10 343 321 355 300 238 252 162 234 166 185 164 180 176 201 175 63 173 312 225 276 305 227 261 280 330 187 183 179
342 353 10 353 101 147 101 243 272 333 331 323 309 299 325 343 348 348 310 30 348 343 277 244 167 190 203 147 187 174 145 178 194 196 231 274 272 225 220 227 291 217 194 185 175
351 12 9 19 163 153 235 267 297 292 326 314 313 310 305 314 325 21 299 317 4 349 349 0 107 255 137 198 172 152 167 145 164 159 163 298 262 221 224 216 226 215 184 189 175
358 33 349 340 12 31 279 274 312 289 292 281 263 246 251 294 326 266 259 287 348 341 343 306 321 217 211 161 195 198 174 158 189 196 206 157 267 221 229 242 221 209 176 184 183
342 309 351 1 34 315 297 284 263 290 289 325 305 288 308 294 306 232 266 226 323 336 354 334 304 148 47 320 139 203 203 199 117 107 210 177 252 318 323 271 223 200 174 176 177
353 345 350 44 20 309 322 300 287 290 286 262 260 283 281 274 299 287 276 242 351 330 334 336 283 272 218 206 134 160 207 210 193 158 185 213 187 261 280 264 242 187 182 172 178
8 332 328 320 328 322 309 284 291 329 316 309 298 241 324 301 308 346 15 321 79 45 348 3 273 290 309 291 286 153 185 201 204 215 208 187 234 225 245 242 242 187 174 170 179
2 333 312 281 292 320 321 277 328 337 307 313 290 313 311 272 260 287 295 310 333 111 329 290 283 345 300 270 272 264 263 229 204 208 227 182 252 212 250 161 177 172 178 181 188
339 328 294 281 297 296 271 308 307 313 289 234 300 311 301 294 325 291 273 264 220 199 136 261 303 4 305 340 267 263 238 233 218 221 202 197 234 146 200 219 198 178 193 194 197
Wind_Speed_850mb
38 43 49 54 59 62 61 59 58 54 54 55 55 53 53 56 59 53 62 52 34 29 30 31 22 35 31 24 22 16 4 12 15 13 16 9 4 7 5 16 17 33 44 53 63
37 39 42 47 50 55 59 60 62 60 57 55 55 55 57 59 62 75 67 62 41 42 45 47 44 40 29 25 20 16 11 22 22 16 13 8 3 33 11 33 31 52 56 52 60
35 36 35 34 39 45 50 54 57 59 60 59 56 56 56 51 56 68 67 55 44 55 55 51 30 44 29 23 31 17 27 39 28 51 15 16 30 22 19 26 50 42 73 76 62
36 38 39 38 39 39 40 44 49 53 56 58 58 57 57 39 19 3 23 27 43 58 61 56 42 33 14 22 42 9 36 58 56 46 28 23 31 44 47 60 69 70 78 81 69
39 39 40 41 43 43 41 39 40 44 47 50 48 46 49 33 50 11 25 14 8 25 52 64 61 44 19 18 32 17 25 39 51 53 55 46 38 41 59 92 78 73 78 80 71
41 42 42 42 43 43 43 45 43 42 43 44 40 35 35 39 59 59 74 48 30 15 13 51 39 56 22 21 18 18 41 49 40 59 65 45 39 39 73 75 70 72 76 81 77
45 46 47 47 47 48 48 46 46 46 47 43 37 33 51 87 48 42 36 74 69 62 56 38 47 38 23 4 24 21 12 16 27 40 20 42 24 37 92 64 61 72 80 82 77
43 44 47 49 49 50 49 51 52 53 54 48 37 25 39 45 54 64 69 58 51 55 57 47 36 49 11 7 1 6 6 6 9 11 15 24 23 41 66 57 70 67 65 69 73
48 50 50 49 49 52 52 52 53 54 47 38 21 20 36 29 53 60 66 80 72 54 36 21 47 33 9 15 13 4 22 20 13 17 9 15 20 34 42 25 47 63 72 69 74
44 47 50 53 54 51 52 53 42 28 20 5 11 11 30 23 23 30 26 43 61 36 50 29 24 11 11 16 33 13 10 12 19 4 8 19 26 38 69 38 50 56 70 81 80
45 46 46 46 51 55 50 49 16 7 15 15 18 39 55 29 26 12 22 23 43 35 21 26 15 45 45 33 11 10 25 32 9 6 13 19 16 30 48 26 37 57 68 80 83
48 49 48 46 46 49 41 11 9 16 24 49 62 69 79 77 38 48 25 22 24 31 24 13 58 43 26 34 34 25 27 32 16 7 12 20 26 32 31 35 40 58 73 73 61
48 47 46 49 48 38 19 12 14 36 12 33 56 37 48 53 49 81 35 25 13 26 48 50 52 29 34 26 32 33 40 32 20 9 11 13 23 27 24 27 38 51 45 44 46
47 45 46 49 32 25 29 1 24 24 8 15 10 15 13 19 21 84 54 26 14 37 35 36 42 40 24 39 33 39 32 30 22 7 13 10 12 20 18 33 15 42 45 45 37
44 45 46 38 42 24 21 18 14 5 9 5 5 0 28 19 25 30 92 49 20 19 20 25 35 42 46 48 41 26 20 18 17 14 4 7 8 11 9 19 27 22 50 48 38
48 51 47 41 33 19 10 15 2 4 15 8 13 27 20 10 32 22 36 51 26 12 18 22 25 45 20 24 33 14 9 8 7 2 16 25 14 9 12 20 13 11 18 27 21
54 49 41 35 31 23 19 7 4 9 12 10 17 30 29 30 18 11 17 41 21 23 26 11 27 3 14 11 14 15 15 2 6 1 10 12 15 26 19 17 18 23 31 11 23
54 47 32 16 15 12 1 3 13 8 7 23 24 27 19 31 24 45 8 16 35 5 18 16 10 34 12 19 18 31 20 13 11 7 10 14 15 15 25 29 42 45 32 22 35
59 38 18 26 9 13 4 3 6 7 7 20 25 13 9 22 10 21 13 13 3 32 9 13 12 8 29 14 39 16 21 19 4 3 1 7 15 15 11 15 7 1 17 34 40
58 23 31 22 5 12 3 7 7 10 14 10 9 9 13 24 14 19 17 26 23 19 7 7 5 11 27 11 38 22 22 14 12 13 8 10 10 10 6 14 5 8 16 34 42
29 10 23 23 12 3 1 8 9 20 16 7 7 8 17 24 8 5 12 24 42 44 20 14 3 3 20 27 25 10 13 6 14 10 10 2 12 14 17 15 16 17 35 48 51
23 5 16 16 6 3 3 6 15 16 20 14 9 16 19 16 10 4 10 12 45 34 20 6 5 6 26 14 41 34 20 14 15 19 7 8 11 9 19 11 12 18 33 36 43
22 11 10 13 5 4 8 9 9 10 13 6 10 8 13 11 10 15 3 5 22 31 25 16 8 4 4 6 6 42 40 23 11 7 32 8 10 5 9 8 19 23 35 38 43
14 8 9 7 5 6 11 13 8 18 18 9 9 11 8 9 13 12 13 5 9 22 33 26 7 9 16 4 10 10 32 36 18 6 8 20 6 10 8 15 11 21 37 43 46
16 5 6 8 8 15 13 7 9 12 11 17 7 3 10 5 13 5 14 10 5 13 12 11 7 7 28 23 17 1 19 41 33 41 21 7 14 12 15 18 13 34 40 46 49
14 9 11 13 21 13 8 6 8 12 8 9 6 19 14 8 9 15 18 11 2 2 3 6 8 13 9 13 27 21 22 21 47 39 36 6 22 16 10 10 18 42 50 52 57
15 19 13 12 9 5 4 8 19 24 22 19 17 23 23 23 11 29 35 34 14 4 3 4 6 12 9 14 9 22 43 23 9 24 31 23 44 8 9 16 23 45 57 62 64
Wind_Direction_850mb
310 301 297 295 295 297 294 294 291 287 284 284 280 278 277 278 274 268 258 260 264 260 254 232 216 222 216 211 198 187 130 239 239 187 245 173 329 278 295 284 294 288 290 297 298
324 315 306 300 295 291 294 295 293 291 289 286 284 280 278 279 280 272 263 259 249 253 252 241 222 206 198 217 198 184 191 223 216 208 247 256 224 300 309 304 285 294 302 304 308
343 341 337 323 307 300 296 295 293 292 290 286 282 281 280 284 291 280 273 266 244 242 241 241 229 205 194 204 200 204 225 231 264 245 267 290 296 304 280 285 285 291 301 305 301
337 334 334 332 332 327 319 307 300 296 290 287 286 282 276 278 242 297 228 198 216 219 224 219 202 183 196 205 214 218 233 238 248 260 274 265 288 284 287 273 282 291 293 295 290
334 330 328 326 326 325 325 324 318 308 299 292 287 286 284 258 236 234 201 177 40 206 212 202 189 186 178 216 217 230 240 247 254 268 269 275 260 267 280 280 285 289 291 292 289
327 326 325 324 323 323 322 318 314 310 307 302 296 287 277 253 260 251 243 239 247 272 250 201 207 203 205 221 185 201 237 253 268 264 263 270 276 276 272 274 281 287 290 294 293
328 326 324 323 321 318 317 316 311 311 309 303 298 284 264 250 249 262 257 246 245 248 252 253 213 200 217 289 247 243 233 263 244 254 253 266 270 255 268 281 282 282 287 288 289
325 323 321 321 320 318 317 310 308 311 304 291 281 281 260 272 270 255 246 249 240 242 245 247 241 231 229 217 38 192 178 241 241 206 250 181 267 269 272 271 274 280 287 288 289
323 323 322 320 319 318 317 310 314 309 303 288 261 246 273 275 261 270 252 240 239 242 233 213 220 220 206 227 283 255 254 250 292 231 239 177 277 267 280 279 276 280 286 287 289
327 324 324 324 322 321 320 319 319 315 328 43 216 263 265 264 310 289 295 241 226 226 217 215 211 191 183 173 216 203 236 235 235 260 227 258 258 277 277 270 267 281 286 287 291
332 328 326 322 322 325 329 335 357 315 328 276 246 254 283 290 322 218 274 213 200 197 177 180 198 218 207 208 206 206 229 242 248 202 243 244 256 265 281 267 269 278 280 290 293
334 332 328 326 323 321 323 356 51 321 297 292 279 257 269 274 282 274 237 151 183 196 156 168 227 219 196 204 208 211 237 248 264 198 228 271 273 273 278 273 264 273 279 279 285
334 333 330 325 326 321 342 6 333 334 270 286 263 251 246 249 231 255 236 196 173 184 190 200 225 199 195 194 205 214 221 236 238 307 262 311 291 279 280 278 270 272 277 290 275
331 330 331 324 325 325 324 224 325 323 299 272 220 251 235 240 247 233 224 210 191 191 195 228 223 194 191 207 194 222 215 236 253 255 255 132 284 290 300 296 278 285 296 287 285
336 329 323 318 305 306 313 306 303 160 318 246 180 306 321 187 306 233 218 229 202 169 166 213 178 199 204 204 193 224 178 211 225 231 208 240 278 266 268 279 281 271 286 279 273
332 328 322 315 296 314 317 326 241 110 245 319 27 340 329 231 259 279 175 211 222 184 246 213 200 196 176 189 197 169 143 80 31 140 258 255 204 245 231 233 261 266 275 297 248
333 329 321 303 285 303 312 301 123 202 338 26 339 336 329 355 1 342 232 196 186 188 207 168 232 197 159 174 164 131 98 258 335 242 225 192 187 244 252 235 233 256 275 293 195
338 335 330 331 283 268 267 76 226 286 308 351 340 319 347 14 338 339 266 223 241 243 167 173 202 199 177 184 171 184 161 155 199 214 249 161 204 245 224 232 246 255 260 198 189
342 347 23 5 326 147 151 190 246 328 24 337 342 335 350 4 10 343 321 355 300 238 252 162 234 166 185 164 180 176 201 175 63 173 312 225 276 305 227 261 280 330 187 183 179
342 353 10 353 101 147 101 243 272 333 331 323 309 299 325 343 348 348 310 30 348 343 277 244 167 190 203 147 187 174 145 178 194 196 231 274 272 225 220 227 291 217 194 185 175
351 12 9 19 163 153 235 267 297 292 326 314 313 310 305 314 325 21 299 317 4 349 349 0 107 255 137 198 172 152 167 145 164 159 163 298 262 221 224 216 226 215 184 189 175
358 33 349 340 12 31 279 274 312 289 292 281 263 246 251 294 326 266 259 287 348 341 343 306 321 217 211 161 195 198 174 158 189 196 206 157 267 221 229 242 221 209 176 184 183
342 309 351 1 34 315 297 284 263 290 289 325 305 288 308 294 306 232 266 226 323 336 354 334 304 148 47 320 139 203 203 199 117 107 210 177 252 318 323 271 223 200 174 176 177
353 345 350 44 20 309 322 300 287 290 286 262 260 283 281 274 299 287 276 242 351 330 334 336 283 272 218 206 134 160 207 210 193 158 185 213 187 261 280 264 242 187 182 172 178
8 332 328 320 328 322 309 284 291 329 316 309 298 241 324 301 308 346 15 321 79 45 348 3 273 290 309 291 286 153 185 201 204 215 208 187 234 225 245 242 242 187 174 170 179
2 333 312 281 292 320 321 277 328 337 307 313 290 313 311 272 260 287 295 310 333 111 329 290 283 345 300 270 272 264 263 229 204 208 227 182 252 212 250 161 177 172 178 181 188
339 328 294 281 297 296 271 308 307 313 289 234 300 311 301 294 325 291 273 264 220 199 136 261 303 4 305 340 267 263 238 233 218 221 202 197 234 146 200 219 198 178 193 194 197